Portada
METAR-TAF:

METAR-TAF

Aeropuertos :

Kaolack, Senegal

latitud: 14-08N, longitud: 016-04W, altitud: 6 m

Observación

El informe se hizo hace 3 horas y 10 minutos, a las 15:00 UTC
Viento 8 kt del norte
Temperatura 37°C
Humedad 24%
Presión 1009 hPa
Visibilidad 10 km o más
sin nubes por debajo de 1500 m y sin presencia de cumulonimbus.

METAR: GOOK 131500Z 36008KT CAVOK 37/13 Q1009

Hora: 18:10 (18:10 UTC)


TAF: falta

Observaciones y pronósticos meteorológicos de más de 4000 aeropuertos (mensajes METAR y TAF).

Los puntos amarillos y rojos representan las estaciones disponibles.

Ponga el ratón en el punto deseado para ver el nombre de la estación.

Haga clic para ver las observaciones y los pronósticos meteorológicos.

Para cambiar el mapa : haga clic en los botones verdes con una cruz de color negro para hacer un zoom, en el botón verde con un guión para alejar o en las flechas verdes para mapas adyacentes.


METAR-TAF: